SKOVDE FLYGPLATS current weather conditions

sailwx.info

Wind from 320 at 4 knots

Air temperature 1.0° C
Visibility: greater than 5.4 NM
Dewpoint -0.0° C

Last reported at 2016-Feb-11 09:20 UTC.
Time now 2016-Feb-11 10:41 UTC

Location: N 58°27' E 013°58'.
View on Google Maps.

See reports from other nearby stations

  
Tides and Currents Weather Stations Pressure Air Temp Water Temp Dewpoint Dewpoint Depression Visibility Wind Speed Wind Dir Waves Ship Positions
date/time (UTC)wind fromknots sea level pressurealtimeterstation pressurevisibilityair tempwater tempwave heightnotes
2016-Feb-11 09:20 320 4 5.4 1.0
2016-Feb-11 08:50 310 4 5.4 1.0
2016-Feb-11 08:20 5.4 1.0
2016-Feb-11 07:50 310 4 5.4 1.0
2016-Feb-11 07:20 320 2 5.4 1.0
2016-Feb-11 06:50 310 3 5.4 1.0
2016-Feb-11 06:20 300 4 5.4 1.0
2016-Feb-11 05:50 310 4 5.4 1.0
2016-Feb-11 05:20 310 3 5.4 1.0
2016-Feb-11 04:50 320 4 5.4 1.0
2016-Feb-11 04:20 320 3 5.4 1.0
2016-Feb-11 03:50 320 3 5.4 1.0
2016-Feb-11 03:20 320 4 5.4 1.0
2016-Feb-11 02:50 320 3 3.8 1.0 Light drizzle.
2016-Feb-11 02:20 310 3 4.3 1.0 Light rain.
2016-Feb-11 01:50 300 3 5.4 2.0 Light rain.
2016-Feb-11 01:20 300 2 5.4 2.0 Drizzle.
2016-Feb-11 00:50 290 3 5.4 2.0 Light rain.
2016-Feb-11 00:20 290 3 5.4 2.0 Light drizzle.
2016-Feb-10 23:50 320 4 5.4 2.0
2016-Feb-10 23:20 300 4 5.4 2.0
2016-Feb-10 22:20 300 2 5.4 2.0
2016-Feb-10 21:20 280 3 5.4 2.0 Precipitation.
2016-Feb-10 20:50 5.4 2.0 Light drizzle.
2016-Feb-10 20:20 270 2 5.4 2.0
2016-Feb-10 19:50 300 4 5.4 2.0 Light drizzle.
2016-Feb-10 19:20 300 4 5.4 2.0 Light drizzle.
2016-Feb-10 18:50 280 3 4.9 2.0 Precipitation.
2016-Feb-10 18:20 290 4 5.4 2.0 Light drizzle.
2016-Feb-10 17:50 290 5 3.2 2.0 Drizzle.
2016-Feb-10 17:20 280 4 4.9 2.0 Drizzle.
2016-Feb-10 16:50 290 5 2.7 2.0 Drizzle.
2016-Feb-10 16:20 280 4 3.2 2.0 Drizzle.
2016-Feb-10 15:50 280 5 3.8 2.0 Light drizzle.
2016-Feb-10 15:20 300 6 2.0 2.0 Light rain.
2016-Feb-10 14:50 310 7 3.2 1.0 Light rain.
2016-Feb-10 14:20 300 5 2.3 1.0 Light rain snow.
2016-Feb-10 13:50 300 7 2.7 1.0 Light rain.
2016-Feb-10 13:20 300 5 1.9 1.0 Light ice pellets.
2016-Feb-10 12:50 310 6 0.9 1.0 Light snow.
2016-Feb-10 12:20 330 6 1.1 1.0 Light snow.
2016-Feb-10 11:50 330 7 1.1 1.0 Light snow.
2016-Feb-10 11:20 340 7 1.6 1.0 Light snow.
2016-Feb-10 10:50 330 7 1.3 1.0 Light rain snow.
2016-Feb-10 10:20 340 8 1.3 1.0 Light ice pellets.
2016-Feb-10 09:50 350 8 1.5 1.0 Light snow.
2016-Feb-10 09:20 340 9 1.1 1.0 Light snow.
2016-Feb-10 08:50 340 9 0.5 1.0 Light snow.
2016-Feb-10 08:20 350 8 1.0 1.0 Light snow.
2016-Feb-10 07:50 350 7 2.1 2.0 Light rain snow.
2016-Feb-10 07:20 020 7 3.2 1.0 Light rain.
2016-Feb-10 06:50 020 7 3.2 2.0 Light rain.
2016-Feb-10 06:20 020 7 2.7 2.0 Rain.
2016-Feb-10 05:50 020 6 4.9 2.0 Light rain.
2016-Feb-10 05:20 040 5 4.3 2.0
2016-Feb-10 04:50 080 3 5.4 1.0 Light rain.
2016-Feb-10 04:20 020 4 5.4 1.0
2016-Feb-10 03:50 5.4-0.0
2016-Feb-10 03:20 5.4-0.0
2016-Feb-10 02:50 5.4-0.0
2016-Feb-10 02:20 030 2 5.4-0.0
2016-Feb-10 01:50 100 3 5.4 1.0
2016-Feb-10 01:20 5.4-0.0
2016-Feb-10 00:50 5.4 1.0
2016-Feb-10 00:20 100 3 5.4 2.0
2016-Feb-09 23:50 160 5 5.4 3.0
2016-Feb-09 23:20 170 5 5.4 4.0
2016-Feb-09 22:50 190 7 5.4 4.0
2016-Feb-09 22:20 190 7 5.4 4.0
2016-Feb-09 21:50 190 7 5.4 5.0
2016-Feb-09 21:20 180 7 5.4 4.0
2016-Feb-09 20:50 180 7 5.4 4.0
2016-Feb-09 20:20 190 8 5.4 4.0
2016-Feb-09 19:50 190 9 5.4 4.0
2016-Feb-09 19:20 180 7 5.4 4.0
2016-Feb-09 18:50 170 8 5.4 4.0 Mist.
2016-Feb-09 18:20 170 6 5.4 4.0
2016-Feb-09 17:50 180 6 5.4 4.0
2016-Feb-09 17:20 180 8 5.4 3.0
2016-Feb-09 16:50 180 6 5.4 3.0
2016-Feb-09 16:20 190 7 5.4 3.0
2016-Feb-09 15:50 220 9 5.4 5.0
2016-Feb-09 15:20 210 9 5.4 5.0
2016-Feb-09 14:50 220 10 5.4 6.0
2016-Feb-09 14:20 230 11 5.4 6.0
2016-Feb-09 13:50 220 12 5.4 6.0
2016-Feb-09 13:20 230 13 5.4 6.0
2016-Feb-09 12:50 230 15 5.4 6.0
2016-Feb-09 12:20 230 13 5.4 7.0
2016-Feb-09 11:50 220 11 4.3 6.0 Mist.
2016-Feb-09 11:20 230 10 5.4 6.0
2016-Feb-09 10:50 220 14 5.4 6.0
2016-Feb-09 10:20 220 12 5.4 6.0